Location: Newark
(45.9456°N, 15.4064°E)
Time: 01:00:21
(UTC+00:00)

Transit 2A Rocket - Pass Details

Date: 28 January 2020
Orbit: 591 x 911 km, 66.7° (Epoch: 20 February)

Event Time Altitude Azimuth Distance (km) Brightness Sun altitude
Exits shadow 05:30:38 13° 299° (WNW) 1,771 6.3 -9.8°
Maximum altitude 05:32:20 15° 325° (NW) 1,636 6.3 -9.5°
Drops below altitude 10° 05:34:56 10° 1° (N) 1,976 7.0 -9.1°
Sets 05:38:09 0° 25° (NNE) 2,929 8.1 -8.5°
